www.pogodaiklimat.ru

Погода и климат >> Архив погоды >> Россия >> город Севастополь >> Севастополь


АРХИВ ПОГОДЫ в Севастополе

Время (UTC), дата Ветер
(напр.,м/с)
 
Видим.   Явления Облачность Т
(С)
Тd
(С)
f
(%)
Тe
(С)
Тes
(С)
Комфортность P
(гПа)
Po
(гПа)
Тmin
(С)
Tmax
(С)
R
(мм)
S
(см)
15 14.02 СЗ 5 10 км 10 баллов +0.2 -4.4 71 -6 -6 очень
холодно
1026.1 1025.3 0.0
18 14.02 ЮЗ 7 20 км 9 баллов +0.7 -3.9 71 -6 -6 очень
холодно
1022.1 1021.3 +0.7 0.0
21 14.02 СЗ 10 4000 м слабый ливневой снег 10 баллов +1.0 -2.9 75 -7 -7 очень
холодно
1019.5 1018.7
00 15.02 СВ 6 20 км 7 баллов -2.0 -5.1 79 -9 -9 очень
холодно
1019.5 1018.7
03 15.02 СВ 6 20 км 10 баллов -2.1 -4.9 81 -9 -9 очень
холодно
1020.8 1020.0 -2.2 0.3
06 15.02 СВ 4 10 км 10 баллов -0.7 -3.5 81 -6 -6 очень
холодно
1023.5 1022.7 -2.2 0.3
09 15.02 С 6 20 км 10 баллов +2.1 -1.9 75 -4 -4 холодно 1023.5 1022.7
12 15.02 С 6 20 км 10 баллов +3.0 -1.5 72 -3 -3 очень
холодно
1024.8 1024.0
15 15.02 С 9 20 км 9 баллов +3.4 -1.9 68 -3 -3 холодно 1026.1 1025.3 0.0
18 15.02 С 8 20 км 10 баллов +1.2 -3.3 72 -6 -6 очень
холодно
1027.5 1026.7 +3.5
21 15.02 СВ 6 20 км 10 баллов +0.3 -3.4 76 -6 -6 очень
холодно
1028.8 1028.0
00 16.02 СВ 5 20 км 10 баллов -0.1 -4.2 74 -6 -6 очень
холодно
1031.5 1030.7
03 16.02 СВ 3 20 км 7 баллов -1.4 -5.4 74 -6 -6 очень
холодно
1032.8 1032.0 -1.6
06 16.02 СВ 4 20 км 1 балл -2.3 -5.9 76 -8 -7 очень
холодно
1034.1 1033.3 -2.6
09 16.02 С 4 20 км 1 балл -0.2 -5.4 68 -5 -1 очень
холодно
1034.1 1033.3
12 16.02 С 6 20 км 6 баллов +2.0 -4.3 63 -4 -3 очень
холодно
1032.8 1032.0
15 16.02 С 4 20 км 7 баллов +2.4 -5.7 55 -2 -2 холодно 1032.8 1032.0
18 16.02 СВ 4 20 км 2 балла +0.1 -7.0 59 -5 -5 очень
холодно
1034.1 1033.3 +2.5
21 16.02 В 1 20 км ясно -1.8 -7.9 63 -4 -4 холодно 1034.1 1033.3
00 17.02 В 2 20 км ясно -3.5 -7.8 72 -7 -7 очень
холодно
1034.1 1033.3
03 17.02 В 2 20 км ясно -4.4 -7.5 79 -8 -8 очень
холодно
1032.8 1032.0 -4.4
06 17.02 В 3 20 км ясно -4.3 -7.1 81 -10 -9 очень
холодно
1032.8 1032.0 -4.9
09 17.02 СВ 2 20 км ясно +1.1 -6.5 57 -2 +5 холодно 1031.5 1030.7
12 17.02 ЮЗ 3 20 км ясно +3.0 -3.6 62 -1 +3 холодно 1030.1 1029.3
15 17.02 ЮЗ 4 20 км ясно +3.1 -4.4 58 -1 -1 холодно 1028.8 1028.0
18 17.02 ЮЗ 1 20 км ясно +0.2 -5.6 65 -1 -1 прохладно 1028.8 1028.0 +4.0
21 17.02 В 1 20 км ясно +0.1 -4.7 70 -2 -2 прохладно 1027.5 1026.7
00 18.02 СВ 1 20 км 2 балла -1.1 -5.9 70 -3 -3 прохладно 1026.1 1025.3
03 18.02 В 2 20 км 7 баллов -1.2 -5.4 73 -5 -5 холодно 1024.8 1024.0 -1.2
06 18.02 В 2 20 км 9 баллов +0.1 -4.7 70 -3 -3 прохладно 1024.8 1024.0 -1.2
09 18.02 СЗ 3 20 км 6 баллов +4.6 -1.6 64 +1 +4 прохладно 1023.5 1022.7
12 18.02 С 4 20 км 2 балла +6.0 -0.9 61 +3 +5 по сезону 1023.4 1022.7
15 18.02 СВ 2 20 км 4 балла +6.4 -1.0 59 +5 +5 по сезону 1023.4 1022.7
18 18.02 штиль 0 20 км ясно +2.0 -3.3 68 +1 +1 по сезону 1024.8 1024.0 +8.4
21 18.02 В 3 20 км ясно -0.1 -3.8 76 -5 -5 холодно 1026.1 1025.3
00 19.02 В 2 20 км 9 баллов +0.4 -3.2 77 -3 -3 прохладно 1026.1 1025.3
03 19.02 В 3 20 км 10 баллов +0.7 -2.9 77 -4 -4 холодно 1027.5 1026.7 -0.4
06 19.02 В 3 10 км 10 баллов +2.2 -1.6 76 -2 -2 прохладно 1028.8 1028.0 -0.4
09 19.02 В 2 20 км 10 баллов +5.0 +0.9 75 +3 +3 по сезону 1028.8 1028.0
12 19.02 СЗ 2 20 км 9 баллов +7.7 +2.2 68 +6 +6 по сезону 1028.7 1028.0
15 19.02 СЗ 1 20 км 7 баллов +6.2 +1.9 74 +5 +5 по сезону 1027.5 1026.7
18 19.02 В 1 10 км 4 балла +2.9 -0.0 81 +1 +1 по сезону 1027.5 1026.7 +7.7
21 19.02 В 2 20 км ясно +1.2 -1.0 85 -2 -2 прохладно 1027.5 1026.7
00 20.02 В 2 10 км ясно +0.5 -1.6 86 -3 -3 холодно 1024.8 1024.0
03 20.02 штиль 0 10 км 9 баллов +0.2 -1.5 88 -1 -1 прохладно 1023.5 1022.7 +0.1
06 20.02 В 1 10 км 9 баллов +1.3 -0.6 87 -1 -0 прохладно 1022.1 1021.3 +0.1
09 20.02 Ю 3 20 км 7 баллов +13.8 +2.1 45 +13 +15 тепло 1020.7 1020.0
12 20.02 Ю 3 20 км 9 баллов +12.6 +0.7 44 +12 +12 тепло 1019.4 1018.7
15 20.02 Ю 3 20 км 10 баллов +11.4 +1.9 52 +10 +10 тепло 1018.0 1017.3
18 20.02 Ю 2 10 км слабый ливневой дождь 10 баллов +7.2 +4.7 84 +5 +5 по сезону 1018.0 1017.3 +14.1 2
21 20.02 Ю 5 20 км 10 баллов +6.0 +3.2 82 +2 +2 по сезону 1016.7 1016.0
00 21.02 Ю 5 20 км 10 баллов +5.5 +2.7 82 +1 +1 по сезону 1015.4 1014.7
06 21.02 Ю 6 20 км 10 баллов +5.0 +2.4 83 -0 -0 по сезону 1014.0 1013.3 +4.9 2
09 21.02 Ю 6 2000 м дымка 10 баллов +5.0 +3.2 88 -0 -0 прохладно 1014.0 1013.3
12 21.02 ЮЗ 5 10 км 10 баллов +5.6 +3.4 86 +1 +1 прохладно 1012.7 1012.0

 

Местоположение метеостанции Севастополь (город Севастополь, Россия): широта 44.62 долгота 33.53 высота над уровнем моря 6 м.

В архиве по умолчанию представлена погода в Севастополе за последнюю неделю. Архивные данные за месяц целиком и за предыдущие месяцы, начиная с января 2011 года, Вы можете получить, выбрав интересующий диапазон дат из раскрывающегося списка и нажав кнопку "Ввод!".

Внимание! Время в таблицах - всемирное. Для получения местного времени необходимо прибавить поправку, которая в Севастополе равна 3 ч.

Смотрите также архив погоды в соседних городах и на ближайших метеорологических станциях:

Погода в Херсонесском Маяке (город Севастополь, Россия) (13 км)
Погода в Ай-Петри (Крым, Россия) (47 км)
Погода в Ялте (Крым, Россия) (53 км)
Погода в Симферополе (Крым, Россия) (57 км)
Погода в Никитском саду (Крым, Россия) (58 км)
Погода в Евпатории (Крым, Россия) (64 км)
Погода в Алуште (Крым, Россия) (69 км)
Погода в Белогорске (Крым, Россия) (97 км)
Погода в Клепинино (Крым, Россия) (113 км)
Погода в Черноморском (Крым, Россия) (119 км)

Пояснения к столбцам:

Ветер - указаны скорость ветра в м/с - средняя за 10 мин, порывы в срок и между сроками (в фигурных скобках) и направление, откуда дует ветер: С - северный, СВ - северо-восточный, В - восточный, ЮВ - юго-восточный, Ю - южный, ЮЗ - юго-западный, З - западный, СЗ - северо-западный.
Видимость - горизонтальная дальность видимости в метрах или километрах. При видимости от 1 до 10 км при отсутствии осадков обычно наблюдается дымка, при ухудшении видимости до 1 км и менее - туман. В сухую погоду видимость может ухудшаться дымом, пылью или мглою.
Явления - указаны атмосферные явления, наблюдавшиеся в срок или в последний час перед сроком; фигурными скобками обозначены явления, наблюдавшиеся между сроками (за 1-3 часа до срока); квадратными скобками обозначены град или гололедные отложения с указанием их диаметра в мм.
Облачность - указаны через наклонную черту общая и нижняя облачность в баллах и высота нижней границы облаков в метрах; квадратными скобками обозначены формы облаков: Ci - перистые, Cs - перисто-слоистые, Cc - перисто-кучевые, Ac - высококучевые, As - высокослоистые, Sc - слоисто-кучевые, Ns - слоисто-дождевые, Cu - кучевые, Cb - кучево-дождевые. Подробнее классификацию облаков см. в Атласе облаков (PDF).
T - Температура воздуха - температура, измеренная на высоте 2 м над землей.
Td - Температура точки росы - температура, при понижении до которой содержащийся в воздухе водяной пар достигнет насыщения.
f - Относительная влажность воздуха - влажноcть воздуха, измеренная на высоте 2 м над землей.
Te - Эффективная температура - температура, которую ощущает одетый по сезону человек в тени. Характеристика душности погоды. При расчете учитывается влияние влажности воздуха и скорости ветра на теплоощущения человека.
Tes - Эффективная температура на солнце - температура, которую ощущает человек, с поправкой на солнечный нагрев. Характеристика знойности погоды. Зависит от высоты солнца над горизонтом, облачности и скорости ветра. Ночью, в пасмурную погоду, а также при ветре 12 м/с и более поправка равна нулю.
P - Атмосферное давление - приведенное к уровню моря атмосферное давление.
Po - Атмосферное давление - измеренное на уровне метеостанции атмосферное давление.
Tmin - Минимальная температура - минимум температуры воздуха на высоте 2 м над землей.
Tmax - Максимальная температура - максимум температуры воздуха на высоте 2 м над землей.
R - Количество осадков - Количество выпавших осадков, мм. При наведении курсора мыши на число - период времени, за который выпало указанное количество осадков.
S - Снежный покров - Высота снежного покрова, см. При наведении курсора мыши на число - состояние снежного покрова и степень покрытия местности в баллах.